Location: Palombina Nuova
(43.6167°N, 13.4000°E)
Time: 06:14:41
(UTC+00:00)

Cosmos 1408 Rocket - Pass Details

Date: 17 February 2020
Orbit: 602 x 630 km, 82.6° (Epoch: 30 March)

Event Time Altitude Azimuth Distance (km) Brightness Sun altitude
Rises 04:10:18 0° 346° (NNW) 2,875 6.9 -21.0°
Enters shadow 04:11:22 - 344° (NNW) 2,445 6.5 -20.8°
Exits shadow 04:16:23 48° 285° (WNW) 799 3.7 -19.9°
Maximum altitude 04:16:46 50° 267° (W) 782 3.6 -19.9°
Drops below altitude 10° 04:20:59 10° 192° (SSW) 1,971 6.0 -19.1°
Sets 04:23:15 0° 187° (S) 2,876 6.9 -18.7°
